White Mountain, AK

6:23 AM AKDT on May 27, 2017 (GMT -0800)
White Mountain

Weather History for PAWM - October, 2012

Change the Weather History Date:

Saturday, October 13, 2012

  Actual Average (PAOM) Record (PAOM)
Temperature  
Mean Temperature 30 °F -  
Max Temperature 37 °F 36 °F 54 °F (1923)
Min Temperature 24 °F 24 °F 1 °F (1927)
Degree Days  
Heating Degree Days 34    
Moisture  
Dew Point 23 °F    
Average Humidity 74    
Maximum Humidity 85    
Minimum Humidity 62    
Precipitation  
Precipitation 0.00 in - - ()
Sea Level Pressure  
Sea Level Pressure 29.70 in    
Wind  
Wind Speed 10 mph ()    
Max Wind Speed 20 mph    
Max Gust Speed 26 mph    
Visibility 9.7 miles    
Events      
Averages and records for this station are not official NWS values.
T = Trace of Precipitation, MM = Missing Value Source: Averaged Metar Reports

Daily Weather History Graph

Daily Weather History Graph

Search for Another Location

Airport or City:

Trip Planner

Search our weather history database for the weather conditions in past years. The results will help you decide how hot, cold, wet, or windy it might be!

Date:

Astronomy

Oct. 13, 2012 Rise Set
Actual Time 9:41 AM AKDT 7:36 PM AKDT
Civil Twilight 8:52 AM AKDT 8:25 PM AKDT
Nautical Twilight 7:55 AM AKDT 9:21 PM AKDT
Astronomical Twilight 6:57 AM AKDT 10:19 PM AKDT
Moon 7:19 AM AKDT (10/13) 6:42 PM AKDT (10/13)
Length of Visible Light 11h 33m
Length of Day
9h 54m
Waning Crescent, 4% of the Moon is Illuminated
Oct 13
Waning Crescent
Oct 15
New
Oct 21
First Quarter
Oct 29
Full
Nov 6
Last Quarter

Hourly Weather History & Observations

Time (AKDT) Temp. Windchill Dew Point Humidity Pressure Visibility Wind Dir Wind Speed Gust Speed Precip Events Conditions
12:58 AM 27.0 °F 17.3 °F 18.0 °F 69% 29.78 in 10.0 mi North 10.4 mph 17.3 mph N/A   Clear
1:58 AM 25.0 °F 17.1 °F 18.0 °F 75% 29.78 in 10.0 mi North 6.9 mph - N/A   Clear
2:58 AM 24.1 °F 17.0 °F 17.1 °F 75% 29.78 in 10.0 mi NNW 5.8 mph - N/A   Clear
3:58 AM 26.1 °F 16.8 °F 18.0 °F 71% 29.77 in 10.0 mi NNE 9.2 mph - N/A   Clear
4:58 AM 26.1 °F 16.2 °F 17.1 °F 69% 29.76 in 10.0 mi NNE 10.4 mph 18.4 mph N/A   Clear
6:58 AM 25.0 °F 14.8 °F 18.0 °F 75% 29.77 in 10.0 mi NNW 10.4 mph - N/A   Scattered Clouds
8:58 AM 28.0 °F 17.5 °F 19.9 °F 72% 29.75 in 9.0 mi North 12.7 mph - N/A   Overcast
9:58 AM 28.0 °F 17.0 °F 21.9 °F 78% 29.74 in 10.0 mi North 13.8 mph - N/A   Overcast
10:58 AM 28.9 °F 17.7 °F 24.1 °F 82% 29.73 in 9.0 mi North 15.0 mph - N/A   Mostly Cloudy
11:58 AM 32.0 °F 21.2 °F 25.0 °F 75% 29.72 in 8.0 mi North 16.1 mph 20.7 mph N/A   Overcast
12:58 PM 34.0 °F 24.6 °F 24.1 °F 67% 29.71 in 10.0 mi North 13.8 mph 17.3 mph N/A   Overcast
1:58 PM 35.1 °F 25.9 °F 24.1 °F 64% 29.70 in 9.0 mi North 13.8 mph 21.9 mph N/A   Partly Cloudy
2:58 PM 36.0 °F 25.3 °F 24.1 °F 62% 29.68 in 9.0 mi North 19.6 mph 26.5 mph N/A   Overcast
3:58 PM 36.0 °F 26.3 °F 25.0 °F 64% 29.67 in 10.0 mi North 16.1 mph 25.3 mph N/A   Clear
4:58 PM 37.9 °F 29.6 °F 26.1 °F 62% 29.65 in 10.0 mi North 13.8 mph 24.2 mph N/A   Mostly Cloudy
5:58 PM 36.0 °F 26.3 °F 27.0 °F 70% 29.64 in 10.0 mi North 16.1 mph - N/A   Clear
6:58 PM 35.1 °F 25.5 °F 28.0 °F 76% 29.65 in 10.0 mi North 15.0 mph 18.4 mph N/A   Overcast
7:58 PM 33.1 °F 23.9 °F 28.0 °F 82% 29.63 in 10.0 mi North 12.7 mph 18.4 mph N/A   Clear
8:58 PM 30.9 °F 22.8 °F 27.0 °F 85% 29.64 in 10.0 mi North 9.2 mph - N/A   Clear
9:58 PM 30.0 °F 23.2 °F 26.1 °F 85% 29.64 in 10.0 mi Variable 6.9 mph - N/A   Partly Cloudy
10:58 PM 30.0 °F 25.2 °F 26.1 °F 85% 29.64 in 10.0 mi North 4.6 mph - N/A   Overcast
11:58 PM 28.9 °F 21.1 °F 25.0 °F 85% 29.63 in 10.0 mi NW 8.1 mph - N/A   Overcast